| time (UTC) | temp F | wind direction | speed MPH | gust MPH | rain 1hr in | rain 24hr in | rain mn in | humidity % | barometer mb |
| 20260831184533 | 70 | 8 | 4.0 | 10.0 | 0.00 | 0.00 | 0.00 | 41 | 1018.3 |
| 20260831183045 | 70 | 303 | 1.0 | 10.0 | 0.00 | 0.00 | 0.00 | 42 | 1018.5 |
| 20260831181528 | 69 | 53 | 2.0 | 9.0 | 0.00 | 0.00 | 0.00 | 42 | 1018.5 |
| 20260831180025 | 69 | 37 | 5.0 | 14.0 | 0.00 | 0.00 | 0.00 | 42 | 1018.6 |
| 20260831174524 | 68 | 1 | 4.0 | 15.0 | 0.00 | 0.00 | 0.00 | 44 | 1018.7 |
| 20260831173022 | 68 | 22 | 5.0 | 11.0 | 0.00 | 0.00 | 0.00 | 45 | 1018.7 |
| 20260831171519 | 67 | 229 | 2.0 | 6.0 | 0.00 | 0.00 | 0.00 | 45 | 1018.7 |
| 20260831170018 | 67 | 281 | 1.0 | 9.0 | 0.00 | 0.00 | 0.00 | 48 | 1018.7 |
| 20260831164513 | 66 | 321 | 1.0 | 7.0 | 0.00 | 0.00 | 0.00 | 48 | 1018.7 |
| 20260831163033 | 66 | 323 | 1.0 | 6.0 | 0.00 | 0.00 | 0.00 | 50 | 1018.7 |
| 20260831161512 | 64 | 262 | 2.0 | 7.0 | 0.00 | 0.00 | 0.00 | 50 | 1018.6 |
| 20260831160007 | 64 | 327 | 0.0 | 4.0 | 0.00 | 0.00 | 0.00 | 51 | 1018.6 |
| 20260831154618 | 62 | 285 | 1.0 | 8.0 | 0.00 | 0.00 | 0.00 | 51 | 1018.5 |
| 20260831153056 | 61 | 261 | 2.0 | 9.0 | 0.00 | 0.00 | 0.00 | 52 | 1018.4 |
| 20260831151551 | 60 | 304 | 2.0 | 9.0 | 0.00 | 0.00 | 0.00 | 54 | 1018.3 |
| 20260831150047 | 59 | 314 | 1.0 | 6.0 | 0.00 | 0.00 | 0.00 | 56 | 1018.4 |
| 20260831144544 | 58 | 244 | 2.0 | 5.0 | 0.00 | 0.00 | 0.00 | 57 | 1018.2 |
| 20260831143039 | 56 | 271 | 0.0 | 2.0 | 0.00 | 0.00 | 0.00 | 60 | 1018.1 |
| 20260831141534 | 55 | 268 | 0.0 | 2.0 | 0.00 | 0.00 | 0.00 | 61 | 1018.0 |
| 20260831140038 | 54 | 295 | 0.0 | 2.0 | 0.00 | 0.00 | 0.00 | 64 | 1017.8 |
| 20260831134527 | 53 | 314 | 0.0 | 5.0 | 0.00 | 0.00 | 0.00 | 64 | 1017.6 |
| 20260831133022 | 51 | 316 | 0.0 | 2.0 | 0.00 | 0.00 | 0.00 | 68 | 1017.6 |
| 20260831131530 | 49 | 257 | 0.0 | 1.0 | 0.00 | 0.00 | 0.00 | 71 | 1017.3 |
| 20260831130032 | 47 | 279 | 0.0 | 2.0 | 0.00 | 0.00 | 0.00 | 75 | 1017.1 |
| 20260831124517 | 46 | 290 | 0.0 | 1.0 | 0.00 | 0.00 | 0.00 | 77 | 1016.9 |
| 20260831123013 | 46 | 288 | 0.0 | 2.0 | 0.00 | 0.00 | 0.00 | 77 | 1016.8 |
| 20260831121515 | 45 | 284 | 0.0 | 1.0 | 0.00 | 0.00 | 0.00 | 79 | 1016.7 |
| 20260831120009 | 44 | 234 | 0.0 | 3.0 | 0.00 | 0.00 | 0.00 | 81 | 1016.5 |
| 20260831114506 | 44 | 293 | 0.0 | 0.0 | 0.00 | 0.00 | 0.00 | 78 | 1016.5 |
| 20260831113004 | 46 | 293 | 0.0 | 0.0 | 0.00 | 0.00 | 0.00 | 76 | 1016.4 |
| 20260831111507 | 46 | 274 | 0.0 | 3.0 | 0.00 | 0.00 | 0.00 | 75 | 1016.3 |
| 20260831110001 | 47 | 278 | 0.0 | 1.0 | 0.00 | 0.00 | 0.00 | 73 | 1016.4 |
| 20260831104559 | 48 | 338 | 2.0 | 6.0 | 0.00 | 0.00 | 0.00 | 72 | 1016.3 |
| 20260831103103 | 47 | 303 | 0.0 | 3.0 | 0.00 | 0.00 | 0.00 | 73 | 1015.9 |
| 20260831101555 | 47 | 314 | 0.0 | 2.0 | 0.00 | 0.00 | 0.00 | 75 | 1015.9 |
| 20260831100052 | 47 | 207 | 0.0 | 1.0 | 0.00 | 0.00 | 0.00 | 74 | 1015.7 |
| 20260831094557 | 47 | 295 | 0.0 | 2.0 | 0.00 | 0.00 | 0.00 | 74 | 1015.5 |
| 20260831093050 | 47 | 277 | 0.0 | 3.0 | 0.00 | 0.00 | 0.00 | 73 | 1015.5 |
| 20260831091550 | 47 | 301 | 1.0 | 4.0 | 0.00 | 0.00 | 0.00 | 73 | 1015.2 |
| 20260831090051 | 48 | 250 | 2.0 | 4.0 | 0.00 | 0.00 | 0.00 | 72 | 1015.1 |
| 20260831084544 | 48 | 243 | 2.0 | 5.0 | 0.00 | 0.00 | 0.00 | 73 | 1015.1 |
| 20260831083044 | 46 | 280 | 0.0 | 2.0 | 0.00 | 0.00 | 0.00 | 77 | 1014.9 |
| 20260831081541 | 46 | 242 | 1.0 | 3.0 | 0.00 | 0.00 | 0.00 | 78 | 1014.8 |
| 20260831080040 | 45 | 285 | 0.0 | 1.0 | 0.00 | 0.00 | 0.00 | 78 | 1014.7 |
| 20260831074534 | 46 | 322 | 0.0 | 1.0 | 0.00 | 0.00 | 0.00 | 77 | 1014.9 |
| 20260831073033 | 46 | 250 | 0.0 | 3.0 | 0.00 | 0.00 | 0.00 | 76 | 1014.8 |
| 20260831071539 | 48 | 238 | 2.0 | 5.0 | 0.00 | 0.00 | 0.00 | 74 | 1014.8 |
| 20260831070023 | 48 | 219 | 0.0 | 2.0 | 0.00 | 0.00 | 0.00 | 73 | 1014.7 |
| 20260831064521 | 49 | 229 | 0.0 | 2.0 | 0.00 | 0.00 | 0.00 | 71 | 1014.7 |
| 20260831063017 | 50 | 290 | 0.0 | 3.0 | 0.00 | 0.00 | 0.00 | 69 | 1014.8 |
| 20260831061514 | 51 | 280 | 1.0 | 5.0 | 0.00 | 0.00 | 0.00 | 68 | 1014.8 |
| 20260831060002 | 52 | 269 | 1.0 | 6.0 | 0.00 | 0.00 | 0.00 | 67 | 1014.4 |
| 20260831054502 | 52 | 303 | 2.0 | 6.0 | 0.00 | 0.00 | 0.00 | 67 | 1014.4 |
| 20260831053005 | 52 | 239 | 1.0 | 4.0 | 0.00 | 0.00 | 0.00 | 66 | 1014.4 |
| 20260831051501 | 52 | 266 | 1.0 | 7.0 | 0.00 | 0.00 | 0.00 | 66 | 1014.3 |
| 20260831044611 | 52 | 269 | 3.0 | 8.0 | 0.00 | 0.02 | 0.00 | 67 | 1014.3 |
| 20260831043058 | 52 | 273 | 3.0 | 8.0 | 0.00 | 0.02 | 0.00 | 68 | 1014.3 |
| 20260831041600 | 52 | 252 | 2.0 | 6.0 | 0.00 | 0.02 | 0.00 | 68 | 1014.3 |
| 20260831040058 | 53 | 275 | 1.0 | 5.0 | 0.00 | 0.03 | 0.00 | 67 | 1014.4 |
| 20260831034557 | 54 | 258 | 4.0 | 10.0 | 0.00 | 0.03 | 0.00 | 64 | 1014.6 |
| 20260831033057 | 56 | 76 | 2.0 | 10.0 | 0.00 | 0.03 | 0.00 | 60 | 1014.6 |
| 20260831031555 | 56 | 316 | 1.0 | 4.0 | 0.00 | 0.03 | 0.00 | 59 | 1014.2 |
| 20260831030003 | 56 | 288 | 1.0 | 6.0 | 0.00 | 0.03 | 0.00 | 61 | 1014.0 |
| 20260831024507 | 58 | 298 | 0.0 | 4.0 | 0.00 | 0.03 | 0.00 | 57 | 1013.9 |
| 20260831023001 | 59 | 266 | 1.0 | 6.0 | 0.00 | 0.03 | 0.00 | 53 | 1013.7 |
| 20260831021505 | 59 | 250 | 1.0 | 8.0 | 0.00 | 0.03 | 0.00 | 48 | 1013.3 |
| 20260831020059 | 60 | 309 | 4.0 | 12.0 | 0.00 | 0.03 | 0.00 | 46 | 1013.1 |
| 20260831014559 | 60 | 246 | 6.0 | 13.0 | 0.00 | 0.03 | 0.00 | 47 | 1013.1 |
| 20260831013109 | 60 | 240 | 6.0 | 14.0 | 0.00 | 0.03 | 0.00 | 48 | 1013.1 |
| 20260831011559 | 59 | 259 | 5.0 | 11.0 | 0.00 | 0.03 | 0.00 | 49 | 1013.0 |
| 20260831010056 | 58 | 290 | 3.0 | 13.0 | 0.00 | 0.03 | 0.00 | 54 | 1013.1 |
| 20260831004554 | 60 | 293 | 4.0 | 12.0 | 0.00 | 0.03 | 0.00 | 49 | 1013.3 |
| 20260831003103 | 59 | 236 | 2.0 | 6.0 | 0.00 | 0.03 | 0.00 | 55 | 1013.2 |
| 20260831001553 | 59 | 314 | 5.0 | 11.0 | 0.00 | 0.03 | 0.00 | 55 | 1013.5 |
| 20260831000023 | 60 | 265 | 3.0 | 9.0 | 0.00 | 0.11 | 0.00 | 54 | 1013.4 |
| 20260830234534 | 59 | 297 | 6.0 | 19.0 | 0.00 | 0.11 | 0.00 | 52 | 1013.4 |
| 20260830233017 | 63 | 297 | 5.0 | 10.0 | 0.00 | 0.11 | 0.00 | 46 | 1013.2 |
| 20260830231518 | 65 | 288 | 4.0 | 15.0 | 0.00 | 0.11 | 0.00 | 42 | 1012.9 |
| 20260830230016 | 65 | 207 | 3.0 | 12.0 | 0.00 | 0.12 | 0.00 | 42 | 1012.8 |
| 20260830224515 | 65 | 339 | 5.0 | 13.0 | 0.00 | 0.12 | 0.00 | 40 | 1012.8 |
| 20260830223012 | 65 | 304 | 5.0 | 17.0 | 0.00 | 0.12 | 0.00 | 40 | 1012.9 |
| 20260830221512 | 66 | 266 | 8.0 | 17.0 | 0.00 | 0.12 | 0.00 | 40 | 1013.0 |
| 20260830220010 | 66 | 274 | 6.0 | 21.0 | 0.00 | 0.12 | 0.00 | 39 | 1013.2 |
| 20260830214510 | 64 | 234 | 7.0 | 18.0 | 0.00 | 0.12 | 0.00 | 41 | 1013.4 |
| 20260830213009 | 63 | 337 | 5.0 | 17.0 | 0.00 | 0.12 | 0.00 | 44 | 1013.5 |
| 20260830211505 | 64 | 273 | 7.0 | 14.0 | 0.00 | 0.12 | 0.00 | 42 | 1013.7 |
| 20260830210004 | 64 | 239 | 7.0 | 18.0 | 0.00 | 0.12 | 0.00 | 42 | 1013.5 |
| 20260830204504 | 66 | 233 | 4.0 | 19.0 | 0.00 | 0.12 | 0.00 | 43 | 1013.6 |
| 20260830203003 | 64 | 232 | 6.0 | 14.0 | 0.00 | 0.12 | 0.00 | 42 | 1013.5 |
| 20260830201604 | 65 | 217 | 6.0 | 25.0 | 0.00 | 0.12 | 0.00 | 42 | 1013.5 |
| 20260830200058 | 66 | 254 | 5.0 | 19.0 | 0.00 | 0.12 | 0.00 | 41 | 1013.5 |
| 20260830194557 | 63 | 230 | 5.0 | 13.0 | 0.00 | 0.12 | 0.00 | 43 | 1013.6 |
| 20260830193056 | 64 | 239 | 6.0 | 13.0 | 0.00 | 0.12 | 0.00 | 43 | 1013.4 |
| 20260830191554 | 65 | 296 | 4.0 | 12.0 | 0.00 | 0.12 | 0.00 | 41 | 1013.5 |
| 20260830190124 | 65 | 221 | 4.0 | 17.0 | 0.00 | 0.12 | 0.00 | 41 | 1013.4 |